Regional Weather Roundup
Issued by NWS Little Rock, AR

Home | Current Version | Previous Version | Graphics & Text | Print | Product List | Glossary On
Versions: 1 2 3 4 5 6 7 8 9 10 11 12 13 14 15 16 17 18 19 20 21 22 23 24 25 26 27 28 29 30 31 32 33 34 35 36 37 38 39 40 41 42 43 44 45 46 47 48 49 50
000
ASUS44 KLZK 252105
RWRLZK

WEATHER ROUNDUP FOR ARKANSAS
NATIONAL WEATHER SERVICE LITTLE ROCK AR
400 PM CDT MON JUL 25 2016

NOTE: "FAIR" INDICATES FEW OR NO CLOUDS BELOW 12,000 FEET WITH NO
SIGNIFICANT WEATHER AND/OR OBSTRUCTIONS TO VISIBILITY.

ARZ001-003-010-029-252200-
NORTHWEST ARKANSAS

CITY           SKY/WX    TMP DP  RH WIND       PRES   REMARKS
FAYETTEVILLE   CLOUDY    81  77  88 VRB5      29.97F HX  88
FORT SMITH     CLOUDY    84  69  60 SE7       29.93F HX  88
HARRISON       CLOUDY    83  72  69 SE7       29.99F HX  88
BENTONVILLE    PTSUNNY   81  70  69 SE9       29.97F
ROGERS         CLOUDY    81  72  74 SE12      29.98F HX  85
SILOAM SPGS    CLOUDY    82  66  57 SE12G18   29.97F HX  85
HIGHFILL       CLOUDY    84  74  71 SE14      29.96F HX  91
SPRINGDALE     MOSUNNY   82  73  74 SE7       29.99F HX  88
$$

ARZ004-005-016-252200-
NORTH CENTRAL ARKANSAS

CITY           SKY/WX    TMP DP  RH WIND       PRES   REMARKS
BATESVILLE     SUNNY     93  73  52 SE6       29.93F HX 102
FLIPPIN        PTSUNNY   88  72  58 N5        29.93F HX  94
MTN HOME       MOSUNNY   88  75  65 VRB5      29.95F HX  97
$$

ARZ040-041-252200-
WEST CENTRAL ARKANSAS

CITY           SKY/WX    TMP DP  RH WIND       PRES   REMARKS
MENA           CLOUDY    88  75  66 E10       29.98F HX  97
MOUNT IDA      LGT RAIN  76  75  97 CALM      29.94F
$$

ARZ009-017-025-026-028-252200-
NORTHEAST ARKANSAS

CITY           SKY/WX    TMP DP  RH WIND       PRES   REMARKS
CORNING          N/A     84  77  79 E6        29.96S HX  94
JONESBORO      CLOUDY    84  75  74 SE7       29.95F HX  92
NEWPORT        CLOUDY    85  75  71 S10       29.95F THUNDER HX  93
WALNUT RIDGE   PTSUNNY   93  75  55 SE6       29.93F HX 104
BLYTHEVILLE    HVY RAIN  80  78  94 N7        29.97F FOG     HX  88
NW BLYTHEVILLE PTSUNNY   84  73  70 NW6       29.97F HX  91
$$

ARZ022-023-033-042-044-252200-
CENTRAL ARKANSAS

CITY           SKY/WX    TMP DP  RH WIND       PRES   REMARKS
LITTLE ROCK    MOSUNNY   96  73  47 SE3       29.92F HX 105
N LITTLE ROCK    N/A     92  75  56 SE6       29.90F HX 103
SEARCY         SUNNY     96  77  54 SE9       29.94F HX 111
HOT SPRINGS    CLOUDY    85  74  69 VRB3      29.95S HX  92
RUSSELLVILLE   SUNNY     90  75  61 SE6       29.91F HX 100
$$

ARZ036-252200-
EAST ARKANSAS

CITY           SKY/WX    TMP DP  RH WIND       PRES   REMARKS
WEST MEMPHIS   CLOUDY    90  75  61 VRB3      29.93F HX 100
$$

ARZ050-053-066-070-073-252200-
SOUTHWEST ARKANSAS

CITY           SKY/WX    TMP DP  RH WIND       PRES   REMARKS
CAMDEN         MOSUNNY   95  70  43 CALM      29.90F HX 101
TEXARKANA      SUNNY     94  72  48 SE9       29.91F HX 102
EL DORADO      PTSUNNY   94  71  47 NE8       29.91F HX 101
DE QUEEN       LGT RAIN  85  74  69 N10G23    29.90F HX  92
$$

ARZ056-057-069-252200-
SOUTHEAST ARKANSAS

CITY           SKY/WX    TMP DP  RH WIND       PRES   REMARKS
PINE BLUFF     MOSUNNY   94  72  48 E3        29.92F HX 102
STUTTGART      SUNNY     93  73  52 SE6       29.93F HX 102
MONTICELLO     MOSUNNY   95  76  53 E6        29.92F HX 108

$$





USA.gov is the U.S. government's official web portal to all federal, state and local government web resources and services.